GFSSW_con_3kmhel_243.txt.gz
Helicity
48 42 37 31 25 19 15 19 21 20 18 15 12 13 16 15 12 15 25 70 32 9 10 17 21 24 26 23 17 8 13 18 8 39 30 40 152 155 209 114 113 170 182 114 105
49 50 47 41 34 27 22 24 28 29 28 23 18 9 4 13 4 6 88 50 22 15 20 17 23 19 30 29 29 23 22 -17 67 114 90 10 167 373 382 159 68 111 53 57 66
55 50 48 44 41 34 33 34 33 32 36 32 25 16 6 -5 -8 55 82 47 26 15 21 14 13 14 26 33 28 19 9 -13 35 50 40 94 -11 107 216 458 114 108 62 10 36
59 55 50 44 36 35 35 34 36 36 35 37 34 22 6 2 44 91 82 57 34 12 19 26 28 30 33 47 40 19 6 -17 110 13 80 69 36 -120 33 150 244 126 109 67 24
77 67 63 55 52 39 36 36 39 38 40 39 36 35 20 16 20 133 80 55 24 24 34 25 23 34 29 32 22 26 11 3 32 33 61 64 75 13 -41 33 -52 9 87 113 71
77 74 67 57 52 44 41 37 37 46 46 48 39 34 27 26 108 79 65 58 41 30 42 30 32 25 20 25 25 26 4 -1 18 21 46 43 48 -5 39 28 -16 35 8 54 69
67 65 64 61 51 41 40 38 37 38 54 56 51 41 35 37 88 86 72 52 51 37 38 39 21 33 40 30 26 11 -5 5 1 4 15 36 44 9 37 -3 -45 21 28 -5 26
81 72 60 49 43 35 31 31 37 43 60 70 52 45 64 105 97 83 59 57 54 49 42 33 25 20 29 19 13 12 2 -24 -3 1 10 51 62 50 -52 -18 29 35 50 31 7
84 85 80 63 49 39 32 31 34 44 51 60 52 64 54 112 54 21 49 64 81 70 60 51 43 39 54 58 47 36 -16 -27 -61 20 71 7 81 90 152 99 61 68 52 79 64
87 86 79 63 55 42 37 27 32 52 58 79 104 91 79 80 76 78 87 84 88 92 76 61 55 53 68 64 62 47 8 -32 -62 -77 44 59 42 86 88 126 104 100 68 57 55
87 81 78 61 37 39 39 40 37 38 64 89 97 112 132 114 122 112 126 121 95 83 53 65 52 60 43 50 29 24 1 -44 -59 -85 -116 -50 47 44 58 63 86 127 192 122 92
77 76 88 77 42 30 27 72 127 115 63 37 28 78 145 201 135 143 140 128 103 70 71 98 55 23 32 56 41 41 20 3 -63 -39 -74 -92 -59 41 17 7 19 38 82 107 132
83 87 89 72 39 16 41 34 70 83 56 46 132 141 158 147 149 110 155 116 116 82 94 63 86 103 75 45 38 27 28 12 24 55 -32 -98 -87 -23 5 -12 3 22 22 63 110
81 88 95 97 32 61 50 49 30 36 98 99 113 161 166 165 161 124 132 168 162 122 83 62 12 42 47 33 45 11 41 40 25 56 43 55 -99 -0 49 13 4 -0 26 43 59
102 114 113 97 90 83 86 64 52 68 137 128 130 115 93 100 156 97 177 189 148 120 151 125 78 69 38 27 42 44 78 59 60 51 39 9 20 22 -2 -10 6 5 6 24 52
85 82 58 48 63 56 90 83 88 178 182 187 143 110 102 83 111 97 94 149 138 71 53 37 84 78 49 77 76 114 64 54 56 54 65 29 44 -23 32 22 44 34 39 31 36
75 72 22 28 73 75 75 87 141 229 166 161 149 121 104 98 68 68 68 93 124 161 91 66 41 106 70 97 92 91 137 106 67 101 64 125 56 93 21 -6 25 54 70 80 79
110 102 59 51 65 48 92 133 188 155 94 169 163 142 138 131 124 100 122 86 80 108 175 128 115 32 80 62 111 78 151 139 118 73 93 63 46 32 51 34 45 55 89 109 92
113 65 69 73 53 94 136 231 258 116 103 128 156 164 162 156 185 100 109 132 136 80 181 94 110 110 159 86 62 179 156 54 174 107 101 99 41 11 -3 -5 15 60 62 87 86
82 77 69 134 103 131 210 205 223 161 217 186 173 147 162 187 213 184 150 116 63 68 62 190 222 127 179 180 111 181 150 250 228 158 96 43 27 64 38 22 65 64 139 109 120
70 97 203 118 116 208 292 217 121 105 141 187 151 125 135 177 161 205 249 197 128 145 46 200 264 262 225 226 197 281 297 203 221 202 191 109 112 104 47 -0 55 45 72 90 92
130 139 164 95 211 215 204 137 236 156 141 130 174 158 188 183 211 166 163 168 174 189 215 133 253 233 174 100 98 103 155 146 276 195 183 142 145 96 60 48 -35 29 38 21 -25
127 144 126 188 287 178 117 126 181 260 184 202 193 138 121 150 184 182 144 98 131 169 218 185 287 238 187 205 266 282 186 163 134 142 182 252 211 133 4 98 -2 49 1 7 70
53 142 145 134 156 352 390 384 379 140 139 198 226 216 201 179 158 195 194 158 247 213 166 213 178 227 225 175 140 191 129 127 133 173 155 192 173 115 136 97 82 45 12 41 54
46 122 143 211 279 269 231 274 296 338 284 305 244 412 477 331 210 176 142 123 93 112 199 269 268 189 144 143 161 149 150 213 168 120 172 158 132 86 88 48 5 18 40 42 57
59 74 86 82 71 123 159 141 177 162 224 301 316 355 152 350 464 513 432 350 377 368 238 109 238 209 169 136 157 167 141 165 205 180 123 88 69 71 42 34 28 58 75 28 28
72 47 42 30 21 28 90 121 124 123 60 70 107 171 257 168 62 105 174 213 244 305 345 377 238 235 213 139 134 135 94 98 107 129 130 101 89 67 37 34 27 22 34 42 51

GFSSW_con_3kmhel_249.txt.gz
Helicity
42 38 37 31 26 23 19 15 12 11 11 15 20 23 23 23 27 6 34 31 47 36 30 36 43 23 35 77 77 123 155 114 121 105 95 74 25 -25 12 65 53 128 43 154 282
43 40 36 35 31 30 22 19 18 15 12 16 22 29 31 25 24 38 22 55 57 46 41 46 30 56 52 62 83 145 122 102 90 80 91 12 12 35 23 -34 -27 41 28 336 346
49 48 50 48 44 40 34 29 23 20 21 23 30 37 38 28 16 27 31 45 62 39 26 26 26 41 56 67 94 105 93 73 23 121 92 33 22 51 -45 -144 -70 -28 350 231 243
62 58 55 49 46 42 38 34 28 24 24 31 37 46 57 25 62 17 46 61 56 36 32 36 49 59 66 64 79 112 57 76 2 95 105 42 50 -57 -62 -65 -118 113 81 84 201
71 66 62 57 49 41 37 30 28 26 27 35 41 56 60 56 46 70 71 49 50 44 42 51 49 58 51 71 81 91 67 32 1 5 79 131 -54 -86 -39 -55 -52 11 231 122 125
86 81 77 69 55 44 34 33 26 27 23 34 51 77 59 80 54 67 64 60 36 41 51 53 65 55 49 52 89 82 40 17 -1 -53 -17 -30 -35 -59 -35 21 -26 14 76 137 195
89 85 75 68 63 53 43 32 27 27 26 32 55 80 77 68 102 93 62 63 61 73 69 68 66 81 84 56 89 74 40 10 36 28 23 -38 -11 31 25 -55 -10 13 2 103 227
91 81 72 63 58 55 44 32 23 26 33 41 64 99 72 56 82 64 109 88 88 82 75 62 78 61 72 57 66 74 89 55 72 77 10 69 31 29 -6 -3 64 70 35 70 58
76 74 66 63 59 58 47 34 21 26 40 57 89 109 59 74 74 49 115 96 84 74 80 71 75 67 90 88 84 79 79 77 84 49 53 70 -12 77 97 72 57 86 58 91 66
68 66 61 65 64 61 63 41 18 65 84 81 125 114 67 70 56 47 76 44 98 85 101 101 93 110 120 149 86 97 73 58 13 63 85 7 -22 15 7 37 80 86 89 99 76
67 64 57 57 52 60 56 33 77 86 84 94 99 112 121 116 126 90 72 115 132 156 105 95 141 129 83 72 79 97 55 32 -12 21 40 50 -52 14 23 -4 31 48 60 25 61
75 70 72 80 77 48 32 48 56 66 67 62 55 95 140 176 168 141 190 213 207 169 121 155 111 91 79 75 73 91 82 55 18 47 68 36 -9 -21 -26 -20 -30 3 21 44 79
80 82 87 95 91 63 76 39 60 77 50 42 128 165 154 198 175 132 205 186 215 185 153 160 123 39 70 64 90 100 86 73 47 44 33 -11 1 16 3 23 3 -37 -29 -8 15
59 61 72 92 29 46 55 70 60 56 84 68 100 96 108 189 111 111 174 208 218 171 103 109 90 85 106 112 132 116 78 70 72 87 39 92 31 21 -22 -33 31 57 33 41 52
61 58 59 45 46 30 41 54 53 53 150 81 83 49 76 91 86 87 62 91 135 160 180 141 138 121 103 81 144 122 114 112 109 99 55 37 63 -9 -27 5 25 63 82 110 140
78 88 79 67 70 47 34 53 84 168 166 149 119 102 118 84 88 103 175 155 94 91 95 112 144 139 134 127 124 145 177 134 110 106 90 34 66 6 2 20 31 79 77 64 72
99 124 119 75 80 80 95 143 235 309 175 153 144 112 111 106 84 102 137 149 142 143 118 96 74 95 161 167 171 198 212 172 123 130 75 94 86 15 4 20 -9 39 101 107 102
111 127 76 88 67 76 138 272 325 246 165 145 152 143 141 132 112 128 141 156 93 150 177 122 127 71 167 166 193 217 222 177 120 115 65 144 42 44 16 -1 37 67 105 148 167
103 77 90 99 112 155 314 361 376 198 156 226 229 176 160 120 151 198 144 171 114 114 191 101 120 171 130 191 240 195 230 157 226 197 133 138 105 74 4 38 61 117 120 131 158
58 63 96 123 130 221 360 381 374 246 209 181 205 226 191 170 145 127 144 114 138 142 205 166 177 142 181 209 211 203 178 287 308 203 141 119 83 49 96 93 137 131 110 129 144
57 85 71 189 80 240 322 359 287 155 168 210 284 308 290 293 228 267 217 164 90 78 80 154 188 217 244 317 277 238 245 246 244 284 155 126 106 93 122 114 139 106 85 70 91
14 105 80 88 254 246 242 220 310 324 182 162 232 300 308 288 266 245 251 279 165 145 176 170 140 177 205 151 121 171 244 302 301 218 231 202 170 113 211 159 159 102 110 113 85
14 27 89 111 286 347 294 269 190 263 225 279 304 283 261 252 307 289 206 111 123 113 127 137 192 226 194 203 236 270 290 216 287 241 212 219 206 174 29 119 136 233 261 173 105
-26 7 59 82 80 157 230 212 230 113 68 123 91 87 216 283 277 279 346 281 252 147 305 139 163 207 238 237 242 263 245 207 200 219 208 203 275 224 250 189 208 126 28 -10 15
-35 -8 27 119 123 112 104 98 143 166 147 57 10 16 58 188 255 343 196 256 278 245 332 152 217 220 153 168 205 202 206 240 198 158 229 150 170 133 108 37 -55 -40 38 45 6
5 31 37 41 5 28 30 64 120 100 42 30 50 65 35 -202 12 155 122 104 90 114 142 307 222 177 185 143 124 117 138 157 105 179 214 106 93 22 59 53 78 8 28 108 151
47 53 61 51 58 42 19 25 66 25 17 18 25 32 46 32 39 30 40 63 90 131 108 -8 252 229 195 116 142 172 53 -60 83 86 134 170 99 148 208 212 183 126 135 154 159

GFSSW_con_3kmhel_252.txt.gz
Helicity
53 52 49 45 36 29 30 24 20 19 16 13 17 26 32 33 30 8 54 25 37 24 27 39 65 76 67 73 86 129 123 82 82 99 98 145 132 99 68 79 23 12 69 52 134
56 52 50 46 39 33 34 32 28 25 21 17 20 33 41 33 15 49 1 29 33 29 56 67 69 85 73 64 78 111 109 67 93 143 101 118 149 111 84 96 57 67 64 115 48
60 58 55 49 46 40 35 29 24 27 26 26 28 38 49 34 30 35 6 2 27 49 51 48 57 65 65 62 62 80 84 96 75 137 133 116 137 92 78 48 75 61 -4 95 -49
71 69 62 56 49 42 40 36 30 24 27 30 35 45 70 25 72 40 15 16 36 54 59 64 74 81 70 62 66 76 69 97 89 174 108 134 150 112 70 66 72 -17 -25 -72 -12
83 76 70 66 58 53 46 38 32 28 27 31 42 64 70 60 47 58 61 58 59 64 63 72 77 77 80 69 71 67 58 54 67 71 82 122 160 99 112 -27 51 -17 -46 -78 111
88 81 78 72 65 60 53 43 35 29 29 35 49 81 84 87 42 48 73 77 56 66 79 70 86 78 72 72 88 67 43 17 12 40 89 109 131 155 66 -46 -47 6 7 39 223
96 88 86 78 75 72 64 50 39 32 32 42 57 87 102 64 98 81 106 75 81 71 84 104 77 99 87 89 91 51 45 28 41 85 91 149 52 115 64 -5 -2 54 59 67 76
93 91 92 84 82 78 67 55 35 31 36 53 74 95 71 60 110 111 107 106 118 109 105 84 96 92 90 89 109 81 88 83 67 106 65 176 38 81 7 -26 13 69 78 115 30
87 87 86 77 73 74 72 62 30 17 42 73 106 107 56 80 77 49 90 88 115 140 123 120 108 109 110 123 134 117 96 83 68 93 66 127 -1 37 32 19 14 32 83 100 78
83 80 78 74 69 65 81 71 32 67 85 93 143 111 66 78 59 47 56 109 131 137 155 149 152 143 159 180 115 91 111 95 65 69 58 -4 3 27 25 -22 28 29 38 103 119
98 99 95 87 75 76 75 53 86 89 105 93 95 115 100 64 90 105 106 141 171 194 166 161 197 161 113 117 140 155 111 78 67 54 22 -8 11 27 62 -1 2 12 21 65 99
73 76 76 86 81 47 60 69 55 67 40 69 71 121 158 194 172 134 166 185 192 176 173 205 152 91 105 124 112 117 110 81 61 73 39 28 7 19 41 36 28 8 18 55 85
61 60 63 84 95 37 47 49 48 57 45 27 99 142 132 183 181 167 167 180 195 185 168 204 130 117 93 105 132 122 114 104 74 75 70 28 -2 28 7 15 52 30 27 21 51
58 60 73 74 61 44 42 44 50 52 69 53 90 81 100 149 142 131 148 207 191 143 174 116 107 105 145 140 144 155 99 88 93 82 48 101 11 29 9 9 7 42 54 27 52
72 84 80 89 68 76 60 56 56 62 136 71 85 65 76 83 89 77 77 173 157 185 204 152 106 101 97 79 160 145 108 104 111 113 91 77 64 14 25 8 21 9 75 90 68
87 96 132 84 98 104 77 73 110 177 214 189 144 135 161 122 114 111 130 142 109 113 121 100 114 121 107 95 94 123 204 218 179 134 118 67 94 33 -6 6 17 47 92 96 75
100 99 128 98 115 115 127 190 265 360 259 186 161 175 175 150 138 125 150 161 157 183 134 111 52 104 138 146 166 235 234 254 221 212 119 103 99 39 30 44 45 15 83 103 136
111 103 75 87 103 175 182 356 355 320 228 257 206 235 229 200 142 140 178 177 131 202 188 134 140 112 149 165 231 214 220 237 155 146 101 160 95 48 98 13 28 79 119 127 121
102 83 104 175 190 207 323 438 432 279 259 395 334 262 246 213 192 222 189 239 176 187 193 95 117 103 91 202 235 234 254 153 183 184 167 159 155 102 73 175 129 121 153 142 137
52 63 75 204 143 242 368 427 425 444 423 348 383 310 307 300 280 221 211 172 190 155 261 177 188 175 143 175 240 231 154 269 270 231 180 155 117 88 124 164 158 196 176 149 133
21 48 104 93 107 212 306 329 344 404 331 316 365 406 394 383 332 371 376 232 144 266 126 178 213 223 237 286 324 313 272 272 247 289 218 148 96 75 86 152 172 188 181 189 154
7 78 91 94 247 249 384 355 324 314 252 238 204 234 254 323 309 307 294 274 142 213 267 230 245 224 232 184 157 204 216 277 324 243 189 176 173 161 100 118 153 196 192 154 138
-9 -12 45 40 255 299 196 245 173 228 184 213 279 247 233 227 287 312 267 277 284 123 64 205 222 246 229 241 255 256 266 220 286 190 200 209 197 183 177 240 271 205 193 129 174
-2 -19 12 51 50 126 136 128 118 21 -2 0 -26 -59 61 161 199 296 309 268 412 249 218 115 126 274 220 265 229 267 227 178 193 243 182 217 196 232 270 334 347 307 287 235 207
33 11 28 45 71 76 42 39 71 71 61 67 29 37 -52 -130 -20 29 126 228 236 206 371 333 279 205 138 133 156 209 210 175 195 144 194 112 172 318 388 323 245 207 174 146 153
52 63 65 61 21 42 28 35 42 58 28 36 25 28 12 12 9 -19 -61 -13 33 100 89 52 248 253 101 138 131 132 178 184 168 232 150 173 207 368 365 197 204 204 197 178 81
67 78 100 47 52 49 42 41 11 27 29 37 8 -2 -5 -2 -12 -2 35 78 27 39 119 106 108 256 197 172 108 111 213 276 68 243 241 235 284 368 421 480 357 171 189 167 209

GFSSW_con_3kmhel_258.txt.gz
Helicity
61 65 63 56 57 52 51 50 47 41 36 31 37 44 45 40 40 22 57 30 42 65 79 96 89 76 90 97 111 118 136 99 79 79 54 92 113 107 112 75 77 54 63 61 94
66 70 67 65 62 62 63 58 50 46 42 42 38 39 38 44 17 53 31 34 65 86 99 80 81 96 109 100 113 149 126 51 64 69 64 82 73 78 108 100 93 108 83 94 150
80 78 72 69 71 69 65 60 55 49 42 37 43 46 51 49 31 24 52 35 41 48 79 82 98 102 115 121 115 118 117 89 76 51 75 71 72 95 99 76 92 96 78 99 135
87 87 83 81 78 72 67 61 55 54 53 46 45 50 68 54 62 46 25 34 40 68 82 94 111 131 115 119 114 133 85 109 85 83 87 89 80 99 123 88 103 72 92 117 134
90 84 83 82 76 74 69 62 56 51 53 53 51 61 79 89 62 94 103 105 107 96 82 94 114 120 132 113 143 125 100 82 82 69 81 92 109 119 77 157 112 95 102 112 126
106 105 102 99 93 84 78 70 63 55 52 52 54 74 84 117 74 113 130 170 119 120 109 117 93 92 112 121 135 120 91 79 66 71 99 104 115 189 51 125 75 134 116 115 110
112 108 107 102 90 81 75 70 59 54 47 44 63 82 103 78 118 170 116 110 111 117 124 104 110 134 132 121 123 110 95 90 87 105 99 92 99 86 33 47 38 91 87 51 85
85 86 91 91 90 85 74 62 40 37 28 41 73 93 79 86 115 125 151 152 137 117 132 126 134 150 143 131 137 111 98 127 101 93 100 104 78 82 47 48 20 52 86 44 41
88 92 96 99 102 99 103 75 50 75 73 92 117 132 69 129 110 101 161 172 171 171 185 168 174 181 183 171 168 154 146 105 127 99 129 95 76 50 89 40 -14 25 60 72 -30
76 82 79 84 92 93 82 47 36 89 105 96 140 136 104 128 121 120 106 165 212 209 231 217 238 244 233 243 186 109 116 109 106 82 105 71 43 84 45 18 9 -28 47 52 78
61 69 67 81 98 106 63 22 76 88 107 102 111 152 146 149 130 116 113 188 237 245 210 211 230 210 159 198 207 161 117 101 99 65 45 73 58 17 71 94 46 24 14 45 46
54 53 61 67 121 85 57 53 49 60 31 79 80 139 186 216 193 182 196 253 254 235 273 260 181 118 128 139 156 153 116 78 46 25 10 42 25 52 73 111 54 26 -8 -19 66
75 99 109 101 131 113 117 99 86 57 38 27 135 183 172 226 243 239 228 279 264 273 231 264 165 103 155 176 177 147 148 114 75 68 20 2 -17 32 47 62 26 1 -14 54 13
91 117 127 144 99 129 123 131 121 60 49 58 117 134 139 196 195 214 224 297 282 211 231 138 166 204 201 194 149 128 92 71 82 79 27 63 -71 -5 29 70 45 15 -9 4 56
79 100 130 103 105 120 146 143 119 90 173 119 170 116 128 143 151 125 225 306 298 314 293 197 137 120 132 159 183 114 68 69 95 100 90 67 64 -29 43 69 68 60 26 -48 16
110 103 107 44 88 105 136 210 168 295 381 314 236 229 233 183 210 183 167 244 194 223 222 180 204 181 128 136 140 131 200 202 174 134 67 43 110 8 16 69 105 114 103 32 -25
145 145 54 27 93 122 100 224 397 488 396 415 416 338 290 282 257 225 233 286 260 269 189 220 174 220 195 187 182 179 255 214 178 173 99 130 90 108 48 77 113 97 140 134 59
-23 12 42 52 87 62 139 335 477 468 460 486 468 427 325 232 220 238 281 274 231 288 273 184 199 159 196 176 200 218 197 237 105 100 60 134 70 26 45 128 115 89 127 136 168
-1 8 30 34 46 27 215 427 477 516 419 435 320 314 332 382 333 283 263 297 232 215 234 157 216 201 148 229 222 245 250 193 211 173 89 101 128 96 15 103 171 127 156 168 186
31 -23 -31 24 30 67 224 331 397 339 335 318 361 408 479 489 449 400 253 325 390 449 364 279 303 220 208 198 237 256 241 310 276 229 172 162 130 75 161 138 183 167 236 253 276
33 -35 -15 26 22 110 281 356 248 201 163 204 287 319 303 299 316 359 378 279 385 358 323 240 222 261 283 313 293 296 300 303 269 276 214 146 108 43 84 105 150 348 343 326 301
11 -23 17 32 58 71 81 84 56 97 73 86 150 189 158 152 130 246 265 209 247 364 363 352 300 175 256 251 196 241 233 310 331 292 287 235 217 157 208 332 375 394 384 368 363
38 25 15 36 71 75 39 36 -9 -109 -98 -32 -21 -53 -14 120 149 111 40 -1 4 32 158 170 334 289 189 251 253 225 252 219 340 278 235 255 233 148 288 493 549 507 468 437 431
78 53 28 36 11 35 41 30 34 24 20 25 11 6 -47 -105 -79 62 146 31 108 34 -118 -58 66 199 400 337 326 291 265 211 169 234 258 248 232 284 430 459 516 529 519 507 472
81 81 83 63 54 35 34 27 17 27 29 12 19 18 32 -9 57 -92 -40 56 22 -27 -32 -81 -73 4 70 -23 -92 176 282 282 241 143 178 189 266 352 411 431 453 504 548 529 481
117 121 114 112 59 52 35 51 32 28 2 24 32 14 8 17 -3 49 57 43 38 61 27 -75 -199 -78 -182 -154 -147 -180 70 147 173 111 210 326 460 560 435 365 383 455 510 540 512
92 92 101 94 93 80 58 57 24 36 17 16 37 32 22 19 19 34 52 42 29 60 163 132 21 -93 -262 -64 -62 -254 -47 -19 -34 62 39 236 422 494 481 436 523 592 467 445 513

GFSSW_con_3kmhel_264.txt.gz
Helicity
79 76 76 71 62 57 51 47 41 39 36 33 29 27 28 28 25 6 30 66 55 88 88 94 84 88 93 100 118 125 121 75 87 66 80 63 42 49 64 31 34 46 49 87 72
76 77 79 72 70 61 51 46 43 38 35 33 38 36 34 35 17 10 64 70 70 109 114 88 95 96 120 110 118 126 120 100 103 85 84 61 58 64 42 32 28 30 27 50 65
75 74 75 76 74 70 65 55 48 41 34 33 37 40 51 45 4 23 36 16 79 110 106 108 123 114 125 132 125 133 120 114 93 74 81 78 62 58 51 37 29 40 23 41 59
75 79 79 78 79 76 73 69 64 52 45 43 50 49 66 51 52 67 47 19 41 87 132 135 128 135 121 118 111 123 84 77 102 93 83 70 75 53 37 37 57 47 40 43 44
74 79 81 83 80 74 69 62 54 50 40 36 44 55 59 64 69 119 130 99 122 111 94 108 105 102 108 113 120 87 82 97 80 78 67 64 51 58 11 53 29 1 8 30 40
71 71 75 77 78 75 69 63 54 40 29 24 35 69 77 76 104 114 134 144 121 109 122 108 100 97 111 119 91 128 87 81 93 73 76 68 59 86 20 62 35 17 7 16 23
61 61 63 60 59 60 58 55 48 36 24 25 43 81 92 46 128 146 151 109 132 119 124 100 146 118 130 119 119 135 105 75 68 73 87 83 72 81 68 33 27 30 24 19 27
45 44 52 57 62 54 47 50 32 29 30 37 56 112 102 90 109 114 151 171 180 171 161 115 138 165 167 201 146 119 111 110 82 96 118 104 99 77 107 84 64 48 38 27 27
52 56 65 67 82 77 66 41 36 45 78 88 111 127 70 87 70 79 129 163 178 186 190 182 166 189 215 169 142 106 107 83 117 64 125 77 127 115 113 113 89 64 44 37 26
54 60 68 73 90 93 76 48 71 103 120 108 161 108 47 71 67 85 115 130 220 224 268 248 234 223 231 226 160 106 132 121 100 80 93 90 78 83 83 88 74 42 18 28 30
61 60 67 85 76 82 66 36 67 74 159 112 144 151 130 152 117 90 144 188 220 194 234 210 234 264 192 109 107 227 133 102 126 144 126 83 69 68 71 76 59 47 35 17 12
61 61 75 71 47 91 39 61 88 90 18 42 41 64 71 173 212 205 200 228 252 223 179 258 169 140 94 94 122 115 125 109 104 81 106 92 74 57 50 52 50 37 19 12 23
48 54 48 63 6 47 65 140 106 111 59 32 78 128 169 130 208 242 219 262 195 177 234 190 181 76 166 134 116 100 93 89 104 106 69 93 57 23 35 51 75 60 48 46 27
46 44 29 39 24 28 40 72 86 65 32 55 162 155 107 103 115 52 184 255 292 203 192 124 97 201 101 67 97 78 83 76 101 118 125 100 99 105 75 59 63 57 85 41 33
15 4 -20 -13 -33 -17 24 49 62 43 38 193 259 120 199 227 240 191 74 181 200 299 333 263 179 105 172 175 117 150 99 35 74 97 146 72 127 17 84 100 97 130 97 97 94
-12 -12 -19 -9 -7 8 12 37 64 56 47 358 356 415 464 251 227 176 109 133 174 212 187 150 195 134 99 93 99 153 176 182 147 132 112 92 100 46 30 100 118 162 151 156 137
-53 -52 -15 -27 -35 -30 -6 49 -3 90 357 390 442 430 469 383 324 265 204 169 231 271 171 142 113 178 192 156 146 158 191 204 153 190 154 194 76 125 156 114 117 115 117 162 187
-82 -33 5 27 10 9 22 27 32 386 398 329 261 246 268 326 285 343 215 164 171 231 232 185 175 104 159 161 184 96 158 245 169 148 125 188 78 138 201 123 140 159 134 159 195
-33 19 25 39 2 11 4 124 289 301 225 138 100 144 187 253 265 299 245 373 371 359 374 234 186 167 100 90 152 227 214 157 237 235 174 151 163 144 112 123 132 195 181 200 220
10 -35 20 10 -6 8 37 113 156 111 86 54 63 101 137 159 217 246 252 109 265 418 353 292 294 98 83 170 86 221 167 297 295 282 248 185 210 237 267 251 247 258 252 239 234
-7 -17 28 26 37 93 52 73 91 66 85 56 112 69 82 70 121 121 143 43 86 134 284 288 260 223 169 146 157 285 282 264 290 245 305 203 178 205 236 226 235 249 281 277 269
-33 -4 42 30 67 5 59 41 44 33 56 55 48 80 134 123 68 65 87 7 -25 -95 9 139 282 295 178 233 145 62 118 143 191 220 213 317 208 146 177 208 240 281 300 303 296
28 26 56 14 83 84 98 94 58 46 56 62 53 51 35 56 46 112 126 51 68 -42 -158 -138 157 468 405 214 373 402 348 309 111 174 169 190 208 151 155 215 267 302 323 306 318
55 97 75 78 93 112 115 115 95 39 30 42 13 14 22 30 9 35 76 89 136 47 28 -117 -187 -16 313 301 244 358 512 435 337 264 167 177 185 263 302 252 282 323 309 321 333
86 145 103 94 107 103 131 114 90 90 42 32 33 27 36 28 41 16 34 64 27 48 23 -20 -231 -127 -101 -72 105 247 254 251 556 401 299 286 311 425 393 327 290 265 282 328 356
115 127 141 71 90 96 127 137 98 62 72 29 51 29 25 21 -9 -14 11 29 31 12 51 12 -26 -75 -98 -71 -73 -76 158 170 193 163 378 386 335 564 501 361 344 374 367 367 383
128 121 127 91 107 114 128 100 75 53 37 43 14 6 -4 2 9 3 -6 11 -4 -0 11 5 3 -20 -207 -57 -36 -30 205 -27 -69 178 147 255 256 239 390 484 429 462 453 390 378